Regional Weather Roundup
Issued by NWS

Home | Current Version | Previous Version | Graphics & Text | Print | Product List | Glossary On
Versions: 1 2 3 4 5 6 7 8 9 10 11 12 13 14 15 16 17 18 19 20 21 22 23 24 25 26 27 28 29 30 31 32 33 34 35 36 37 38 39 40 41 42 43 44 45 46 47 48 49 50
000
ASUS43 KLOT 230108
RWRIL

ILLINOIS REGIONAL WEATHER ROUNDUP
NATIONAL WEATHER SERVICE CHICAGO/ROMEOVILLE IL
800 PM CDT FRI SEP 22 2017

NOTE: "FAIR" INDICATES FEW OR NO CLOUDS BELOW 12,000 FEET WITH NO
SIGNIFICANT WEATHER AND/OR OBSTRUCTIONS TO VISIBILITY.

* THESE STATIONS ARE NOT UNDER NWS QUALITY CONTROL. THEY ALSO MAY NOT
  REPORT WEATHER SUCH AS PRECIPITATION OR FOG.

ILZ001-002-007-009-015-016-024-230200-
NORTHWEST ILLINOIS

CITY           SKY/WX    TMP DP  RH WIND       PRES   REMARKS
MOLINE         CLEAR     79  67  66 S7        29.98R HX  81
STERLING*      CLEAR     81  67  62 SE3       30.01R HX  83
SAVANNA*       CLEAR     78  67  69 S3        29.99S HX  80
$$

ILZ003-004-008-010-011-017-018-230200-
NORTH CENTRAL ILLINOIS

CITY           SKY/WX    TMP DP  RH WIND       PRES   REMARKS
ROCKFORD       CLEAR     78  63  59 SE6       30.02R HX  80
FREEPORT*      CLEAR     73  65  77 S5        30.02S
ROCHELLE*      CLEAR     74  65  75 SE6       30.03R
DE KALB*       CLEAR     76  66  71 SE6       30.04S
PERU*          CLEAR     83  64  52 SE5       30.02S HX  84
$$

ILZ005-006-012>014-019>023-230200-
NORTHEAST ILLINOIS

CITY           SKY/WX    TMP DP  RH WIND       PRES   REMARKS
CHICAGO-OHARE  CLEAR     83  65  54 SE9       30.02R HX  85
CHICAGO-MIDWAY CLEAR     86  68  54 SE8       30.03R HX  89
AURORA         CLEAR     78  67  68 SE3       30.03R HX  80
LANSING*       CLEAR     81  70  68 CALM      30.04S HX  84
JOLIET*        CLEAR     82  69  65 CALM      30.02S HX  85
WAUKEGAN       CLEAR     78  69  73 S6        30.02S HX  80
DUPAGE AIRPORT CLEAR     79  68  69 CALM      30.02S HX  81
KANKAKEE*      CLEAR     78  70  75 CALM      30.04S HX  81
WHEELING       CLEAR     83  69  62 SE3       30.04R HX  86
MORRIS*        CLEAR     81  66  61 SE6       30.01S HX  83
ROMEOVILLE*    CLEAR     80  67  63 SE6       30.03S HX  83
NORTHERLY ISL    N/A     75  68  78 SE5         N/A
$$

LMZ740>746-230200-
SOUTHERN LAKE MICHIGAN

STATION/POSITION SKY/WX   TEMP    WIND        PRES    VSBY  WAVE
                          AIR SEA DIR/SP/G                  HT/PER
                          (F)     (DEG/KT/KT) (MB)    (MI)  (FT/S)
SOUTHERN BUOY              74 71  110/  8/  8 1016.8          0
WILMETTE HARBOR            76 73  140/  8/ 10   N/A           1/ 2
HARRISON CRIB              78     120/ 14/ 15   N/A
BURNHAM HARBOR             75                   N/A
CALUMET HARBOR             79     110/  9/ 13 1016.6R
BURNS HARBOR               79      80/  6/ 10 1017.6
MICHIGAN CITY              82      60/  4/  4   N/A
MICHIGAN CITY 6N           76 72   80/  8/  8   N/A           0
ST. JOSEPH                 78 74  110/  6/  6 1017.0          0
$$

ILZ025>027-034>036-040-047-049-050-058-095>099-230200-
WEST-CENTRAL ILLINOIS

CITY           SKY/WX    TMP DP  RH WIND       PRES   REMARKS
QUINCY         CLEAR     79  64  60 SE6       29.98R HX  81
GALESBURG*     CLEAR     80  65  61 SE3       30.01R HX  82
MACOMB*        CLEAR     74  66  76 SE5       30.01S
JACKSONVILLE*  CLEAR     81  63  53 SE5       29.99S HX  82
PITTSFIELD*    CLEAR     80  64  57 CALM      30.00S HX  82
$$

ILZ028>032-037-038-041>044-048-051>054-059>061-230200-
CENTRAL ILLINOIS

CITY           SKY/WX    TMP DP  RH WIND       PRES   REMARKS
PONTIAC        CLOUDY    80  69  67 E7        30.04S HX  83
BLOOMINGTON    MOCLDY    81  66  60 SE9       30.04S HX  83
DECATUR        MOCLDY    80  65  59 E5        30.03R HX  82
PEORIA         CLEAR     80  67  64 CALM      30.01R HX  82
LACON*         CLEAR     79  66  65 E5        30.00S HX  81
LINCOLN*       CLEAR     80  67  64 CALM      30.01S HX  82
SPRINGFIELD    CLEAR     79  65  62 CALM      30.01R HX  81
TAYLORVILLE    PTCLDY    78  67  69 CALM      30.01S HX  80
$$

ILZ033-039-045-046-055>057-062-063-230200-
EAST-CENTRAL ILLINOIS

CITY           SKY/WX    TMP DP  RH WIND       PRES   REMARKS
CHAMPAIGN      CLOUDY    80  65  59 N6        30.04R HX  82
RANTOUL*       CLOUDY    81  68  63 SE3       30.04S HX  84
MATTOON        CLEAR     79  67  66 N6        30.02R HX  81
$$

ILZ079-100>102-230200-
SOUTHWEST ILLINOIS

CITY           SKY/WX    TMP DP  RH WIND       PRES   REMARKS
ALTON          CLEAR     77  66  69 E6        30.00R
BELLEVILLE     CLEAR     78  68  70 CALM      29.98R HX  80
CAHOKIA*       CLEAR     80  63  55 S5        29.98R HX  81
SPARTA*        CLEAR     76  67  72 CALM      30.01R
$$

ILZ064>066-069>071-074>076-080>082-084>086-088>090-092>094-230200-
SOUTH-CENTRAL ILLINOIS

CITY           SKY/WX    TMP DP  RH WIND       PRES   REMARKS
CARBONDALE     CLEAR     75  70  84 CALM      29.99R
CAIRO*         CLEAR     74  72  93 CALM      29.99R
EFFINGHAM*     CLEAR     78  66  65 CALM      30.03S HX  80
MARION         CLEAR     82  66  57 SE3       30.01R HX  85
MT. VERNON       N/A     72  70  93 CALM      30.01R
CENTRALIA*     CLEAR     78  69  73 CALM      30.00S
SALEM*         CLEAR     78  67  69 CALM      30.01S HX  80
METROPOLIS*    CLEAR     76  70  80 CALM      30.01R
$$

ILZ067-068-072-073-078-083-087-091-230200-
SOUTHEAST ILLINOIS

CITY           SKY/WX    TMP DP  RH WIND       PRES   REMARKS
LAWRENCEVILLE  PTCLDY    80  70  71 CALM      30.02R HX  83
FLORA*         CLEAR     78  69  73 E3        30.02R HX  81
FAIRFIELD*     CLEAR     76  66  69 CALM      30.01R
HARRISBURG*    CLEAR     78  67  70 CALM      30.01R
ROBINSON*      CLOUDY    77  69  76 S5        30.04R
CARMI*         CLEAR     74  68  80 CALM      30.01R
$$

ABBREVIATIONS USED IN REMARKS
   TC - TEMPERATURE IN CELSIUS
  WCI - WIND CHILL INDEX
   HX - HEAT INDEX
  VSB - VISIBILITY
$$




USA.gov is the U.S. government's official web portal to all federal, state and local government web resources and services.